[[{"header":{"parameterUnit":"m.s-1","parameterCategory":1,"la1":30.2991,"la2":30.254,"lo1":-89.0895,"lo2":-89.0444,"dy":0.0017,"dx":0.0017,"nx":28,"ny":28,"refTime":"2024-10-04T21:00:00:Z","depth":0,"parameterNumber":2,"parameterNumberName":"U-component_of_WINDS"},"data":[0,0,0,0,0,0,0,0,0,0,0,0,0,0,0,0,0,0,0,0,0,0,0,0,0,0,0,0,0,0,0,0,0,0,0,0,0,0,0,0,0,0,0,0,0,0,0,0,0,0,0,0,0,0,0,0,0,0,-6.1964,-6.1965,0,-6.1998,-6.1998,-6.1999,-6.1838,-6.1833,-6.1829,-6.1824,-6.1857,-6.1862,-6.1867,0,0,0,0,0,0,0,0,0,0,0,0,0,-6.176,-6.1764,-6.1964,-6.1965,-6.1965,-6.1998,-6.1998,-6.1999,-6.1839,-6.1833,-6.1827,-6.1822,-6.1855,-6.1861,-6.1868,0,0,0,0,0,0,0,0,0,0,0,0,0,-6.1827,-6.1766,-6.1964,-6.1889,-6.1883,-6.1998,-6.1998,-6.1999,-6.184,-6.1833,-6.1826,-6.1819,-6.1853,-6.1861,-6.1869,-6.2057,0,0,-6.1893,-6.1896,0,0,0,0,0,0,0,0,-6.1823,-6.1834,-6.19,-6.1895,-6.1888,-6.1907,-6.1938,-6.2018,-6.1842,-6.1856,-6.1824,-6.1816,-6.1879,-6.1884,-6.1906,-6.2058,-6.206,-6.1893,-6.1898,-6.1901,-6.1904,0,0,0,0,0,0,0,-6.1818,-6.1832,-6.1977,-6.1901,-6.1894,-6.1853,-6.1855,-6.1952,-6.1906,-6.1854,-6.1843,-6.1849,-6.1874,-6.1899,-6.1905,-6.206,-6.1893,-6.19,-6.1905,-6.1908,-6.2366,-6.2373,0,0,0,0,0,0,-6.1824,-6.1829,-6.1976,-6.1978,-6.1838,-6.1863,-6.1865,-6.1908,-6.1905,-6.1898,-6.1855,-6.1841,-6.1889,-6.1897,-6.1906,-6.2124,-6.1901,-6.1909,-6.1913,-6.2359,-6.2368,-6.2376,0,0,0,0,0,0,-6.182,-6.1839,-6.1975,-6.1901,-6.1915,-6.1874,-6.1923,-6.1912,-6.1936,-6.1905,-6.1896,-6.1888,-6.1884,-6.1895,-6.202,-6.2123,-6.1912,-6.1919,-6.235,-6.2362,-6.2372,-6.2563,0,0,0,0,0,0,-6.1815,-6.1838,-6.191,-6.1904,-6.192,-6.209,-6.193,-6.1918,-6.195,-6.1933,-6.1934,-6.1928,-6.1879,-6.2009,-6.2028,-6.213,-6.1925,-6.2341,-6.2355,-6.2368,-6.2547,-6.2579,-6.2607,0,0,0,0,0,-6.1808,-6.1962,-6.1914,-6.1933,-6.2008,-6.2096,-6.2105,-6.2046,-6.1959,-6.203,-6.201,-6.1928,-6.211,-6.2023,-6.2043,-6.2149,-6.2334,-6.2351,-6.2367,-6.2534,-6.2573,-6.2606,0,0,0,0,0,0,-6.1981,-6.196,-6.1907,-6.2063,-6.2083,-6.2069,-6.2156,-6.209,-6.2134,-6.2116,-6.204,-6.2042,-6.218,-6.2177,-6.2082,-6.233,-6.2206,-6.2228,-6.2326,-6.2363,-6.2392,-6.2389,-6.1932,0,0,0,0,0,-6.2038,-6.2112,-6.2089,-6.2229,-6.2242,-6.2198,-6.2234,-6.2187,-6.2204,-6.2211,-6.22,-6.2219,-6.228,-6.2322,-6.2376,-6.2547,-6.2544,-6.263,-6.2659,-6.2684,-6.2703,-6.2791,-6.2828,-6.2431,-6.2431,-6.2431,0,0,-6.2155,-6.2153,-6.2203,-6.2264,-6.2273,-6.235,-6.2206,-6.2294,-6.2349,-6.2224,-6.2341,-6.2334,-6.235,-6.2499,-6.2563,-6.2501,-6.2812,-6.2705,-6.2725,-6.273,-6.2812,-6.2849,-6.2883,-6.2443,-6.2441,-6.2439,0,0,-6.2407,-6.2414,-6.253,-6.2543,-6.2559,-6.2529,-6.2558,-6.2554,-6.2545,-6.2661,-6.2568,-6.2634,-6.2741,-6.2755,-6.2777,-6.3036,-6.2961,-6.3056,-6.321,-6.3297,-6.3328,-6.3356,-6.3446,-6.3479,-6.3075,-6.3076,-6.3076,0,-6.255,-6.2662,-6.2599,-6.2692,-6.2721,-6.2612,-6.2729,-6.2744,-6.2778,-6.28,-6.2729,-6.2861,-6.2864,-6.3013,-6.3077,-6.3099,-6.3127,-6.3054,-6.3329,-6.3356,-6.338,-6.3465,-6.35,-6.3087,-6.3086,-6.3085,-6.3084,0,-6.2836,-6.2916,-6.3008,-6.3044,-6.3083,-6.3188,-6.3139,-6.3187,-6.3137,-6.3114,-6.3234,-6.3234,-6.3286,-6.3319,-6.3271,-6.3461,-6.3422,-6.3342,-6.3216,-6.3431,-6.3509,-6.3541,-6.3103,-6.3099,-6.3096,-6.3093,0,0,-6.3196,-6.3195,-6.323,-6.3244,-6.3254,-6.3314,-6.3414,-6.3466,-6.3507,-6.3534,-6.3615,-6.3709,-6.3635,-6.3659,-6.3613,-6.369,-6.3892,-6.36,-6.3599,-6.3652,-6.4099,-6.4156,-6.4195,-6.3843,-6.3849,-6.3854,-6.4096,0,-6.344,-6.3611,-6.3557,-6.3729,-6.38,-6.3699,-6.3785,-6.3801,-6.3783,-6.3841,-6.382,-6.3887,-6.3786,-6.38,-6.3871,-6.3852,-6.398,-6.3834,-6.3916,-6.3919,-6.3912,-6.4236,-6.4298,-6.4526,-6.4127,-6.4132,-6.4136,0,-6.3748,-6.3787,-6.3967,-6.3964,-6.3992,-6.4072,-6.4113,-6.4171,-6.4186,-6.4167,-6.4196,-6.4133,-6.423,-6.4107,-6.4238,-6.414,-6.4171,-6.4167,-6.4174,-6.4177,-6.4038,-6.4245,-6.4598,-6.4632,-6.4184,-6.418,-6.4177,0,-6.3989,-6.4087,-6.4207,-6.4222,-6.4223,-6.4281,-6.4284,-6.4292,-6.4326,-6.4364,-6.4384,-6.4433,-6.4459,-6.4498,-6.4449,-6.4364,-6.4588,-6.446,-6.4573,-6.4574,-6.4622,-6.4619,-6.4982,-6.4648,-6.4647,-6.4646,-6.4646,0,-6.4266,-6.4379,-6.4314,-6.4388,-6.4511,-6.4448,-6.4572,-6.4563,-6.4572,-6.4641,-6.4557,-6.4624,-6.4557,-6.4618,-6.4581,-6.4694,-6.4707,-6.4694,-6.4682,-6.4699,-6.4701,-6.4716,-6.4698,-6.4655,-6.4653,-6.4652,-6.465,0,-6.4554,-6.4516,-6.4639,-6.463,-6.4631,-6.4722,-6.4713,-6.478,-6.4757,-6.4845,-6.4863,-6.4826,-6.4892,-6.4849,-6.4916,-6.4891,-6.5039,-6.5007,-6.5034,-6.5024,-6.5138,-6.5127,-6.5521,-6.5568,-6.5207,-6.521,-6.5213,0,-6.4732,-6.4816,-6.4817,-6.4857,-6.4865,-6.4932,-6.4966,-6.4908,-6.4947,-6.4971,-6.5035,-6.5095,-6.5139,-6.525,-6.5229,-6.528,-6.5246,-6.5381,-6.5253,-6.5268,-6.5245,-6.5239,-6.5246,-6.5406,-6.541,-6.5413,-6.5416,0,-6.505,-6.5027,-6.508,-6.5127,-6.5171,-6.5205,-6.5232,-6.527,-6.5211,-6.5259,-6.5326,-6.5361,-6.543,-6.5489,-6.5532,-6.5534,-6.5465,-6.5457,-6.5485,-6.5502,-6.5513,-6.5506,-6.5101,-6.5447,-6.5444,-6.5442,-6.544,-6.5439,-6.5286,-6.5356,-6.5367,-6.5428,-6.5443,-6.547,-6.5532,-6.5517,-6.5572,-6.5623,-6.5586,-6.5665,-6.5678,-6.5728,-6.5739,-6.58,-6.5745,-6.5787,-6.5797,-6.5807,-6.5822,-6.5507,-6.5808,-6.5807,-6.5806,-6.5805,-6.5805,0,-6.5597,-6.5599,-6.5657,-6.5697,-6.5746,-6.5679,-6.5705,-6.575,-6.5821,-6.5839,-6.5885,-6.5962,-6.6019,-6.6004,-6.6055,-6.6107,-6.6076,-6.6122,-6.6116,-6.6117,-6.5869,-6.5838,-6.6145,-6.6145,-6.6145,-6.6145,-6.6145,-6.6145,-6.5764,-6.5878,-6.5857,-6.5977,-6.5978,-6.6055,-6.6076,-6.61,-6.6114,-6.6204,-6.6251,-6.6241,-6.6245,-6.6296,-6.6346,-6.634,-6.6361,-6.6418,-6.64,-6.6168,-6.6135,-6.6102,-6.6073,-6.6424,-6.6424,-6.6642,-6.6644,-6.6645]},{"header":{"parameterUnit":"m.s-1","parameterCategory":1,"la1":30.2991,"la2":30.254,"lo1":-89.0895,"lo2":-89.0444,"dy":0.0017,"dx":0.0017,"nx":28,"ny":28,"refTime":"2024-10-04T21:00:00:Z","depth":0,"parameterNumber":3,"parameterNumberName":"V-component_of_WINDS"},"data":[0,0,0,0,0,0,0,0,0,0,0,0,0,0,0,0,0,0,0,0,0,0,0,0,0,0,0,0,0,0,0,0,0,0,0,0,0,0,0,0,0,0,0,0,0,0,0,0,0,0,0,0,0,0,0,0,0,0,-0.1467,-0.1468,0,-0.1557,-0.1558,-0.1559,-0.1616,-0.1616,-0.1617,-0.1617,-0.1712,-0.1714,-0.1717,0,0,0,0,0,0,0,0,0,0,0,0,0,-0.1346,-0.1348,-0.1467,-0.1468,-0.1469,-0.1557,-0.1558,-0.1559,-0.1616,-0.1616,-0.1617,-0.1617,-0.1711,-0.1714,-0.1717,0,0,0,0,0,0,0,0,0,0,0,0,0,-0.1414,-0.1349,-0.1467,-0.1508,-0.1512,-0.1557,-0.1558,-0.156,-0.1616,-0.1616,-0.1617,-0.1617,-0.171,-0.1714,-0.1717,-0.1729,0,0,-0.1727,-0.1729,0,0,0,0,0,0,0,0,-0.141,-0.1418,-0.1501,-0.1505,-0.151,-0.1576,-0.1551,-0.1616,-0.1616,-0.1577,-0.1617,-0.1617,-0.1667,-0.1674,-0.169,-0.1733,-0.1737,-0.1728,-0.173,-0.1731,-0.1732,0,0,0,0,0,0,0,-0.1405,-0.1415,-0.1503,-0.1502,-0.1508,-0.1523,-0.1533,-0.1563,-0.1618,-0.158,-0.1584,-0.1594,-0.1669,-0.1686,-0.1692,-0.1739,-0.1728,-0.1731,-0.1733,-0.1734,-0.1796,-0.1796,0,0,0,0,0,0,-0.1394,-0.141,-0.15,-0.1505,-0.146,-0.1524,-0.1536,-0.1554,-0.1618,-0.1628,-0.1594,-0.1596,-0.168,-0.1688,-0.1696,-0.1714,-0.1731,-0.1734,-0.1736,-0.1797,-0.1796,-0.1796,0,0,0,0,0,0,-0.1391,-0.1401,-0.1496,-0.1459,-0.1472,-0.1526,-0.1546,-0.1556,-0.1573,-0.1628,-0.1638,-0.1601,-0.1681,-0.1691,-0.172,-0.1718,-0.1736,-0.1739,-0.1797,-0.1796,-0.1796,-0.1749,0,0,0,0,0,0,-0.1387,-0.14,-0.1404,-0.1459,-0.1474,-0.1518,-0.1546,-0.1557,-0.1578,-0.1583,-0.1637,-0.1647,-0.1682,-0.1714,-0.1723,-0.1723,-0.1742,-0.1798,-0.1797,-0.1796,-0.1751,-0.1747,-0.1743,0,0,0,0,0,-0.1383,-0.1388,-0.1404,-0.1414,-0.148,-0.1517,-0.1526,-0.1566,-0.1578,-0.1583,-0.1618,-0.1645,-0.1716,-0.1717,-0.1727,-0.1728,-0.1798,-0.1797,-0.1796,-0.1752,-0.1747,-0.1743,0,0,0,0,0,0,-0.1332,-0.1396,-0.1414,-0.1437,-0.1471,-0.1527,-0.1535,-0.1559,-0.1592,-0.1595,-0.1643,-0.1655,-0.1679,-0.1707,-0.1706,-0.1742,-0.176,-0.1761,-0.1723,-0.1719,-0.1715,-0.1708,-0.1744,0,0,0,0,0,-0.1323,-0.1347,-0.1402,-0.1417,-0.1433,-0.1481,-0.1498,-0.1526,-0.1564,-0.1579,-0.1616,-0.1653,-0.1684,-0.1703,-0.1734,-0.1755,-0.1768,-0.176,-0.1756,-0.1753,-0.1753,-0.1767,-0.1764,-0.1793,-0.1793,-0.1793,0,0,-0.1306,-0.1344,-0.1356,-0.1408,-0.1438,-0.1462,-0.1493,-0.1517,-0.1536,-0.1583,-0.1612,-0.1641,-0.1685,-0.1709,-0.1722,-0.1733,-0.1748,-0.1752,-0.1749,-0.1751,-0.1766,-0.1763,-0.176,-0.1792,-0.1793,-0.1793,0,0,-0.1287,-0.1318,-0.1334,-0.1363,-0.1407,-0.1439,-0.1442,-0.1494,-0.1515,-0.1545,-0.158,-0.1604,-0.1656,-0.1686,-0.1708,-0.1699,-0.1726,-0.1708,-0.1689,-0.1701,-0.1699,-0.1697,-0.1694,-0.1693,-0.1709,-0.1709,-0.1709,0,-0.1261,-0.1298,-0.1339,-0.1361,-0.1383,-0.1425,-0.1442,-0.1469,-0.1521,-0.1536,-0.1547,-0.1612,-0.1645,-0.1677,-0.1675,-0.1691,-0.1698,-0.1703,-0.1695,-0.1694,-0.1693,-0.1691,-0.169,-0.1706,-0.1707,-0.1707,-0.1707,0,-0.1263,-0.1289,-0.1296,-0.1345,-0.1367,-0.1387,-0.1431,-0.145,-0.1475,-0.1505,-0.1535,-0.1576,-0.1616,-0.1626,-0.1651,-0.1662,-0.1667,-0.1686,-0.1705,-0.1687,-0.1686,-0.1686,-0.1703,-0.1704,-0.1704,-0.1705,0,0,-0.1215,-0.1286,-0.1288,-0.131,-0.1362,-0.1383,-0.1405,-0.1443,-0.1458,-0.1493,-0.1512,-0.1555,-0.1573,-0.1597,-0.1627,-0.1637,-0.1629,-0.1655,-0.1657,-0.1649,-0.1643,-0.1629,-0.1627,-0.1646,-0.1646,-0.1646,-0.164,0,-0.1204,-0.1244,-0.1281,-0.1308,-0.1332,-0.1373,-0.1392,-0.1426,-0.1455,-0.1481,-0.1514,-0.1543,-0.1564,-0.1579,-0.1591,-0.1627,-0.1628,-0.1628,-0.1666,-0.1667,-0.1653,-0.1627,-0.1612,-0.1603,-0.1639,-0.1639,-0.1639,0,-0.1197,-0.1229,-0.1257,-0.1307,-0.1318,-0.1334,-0.1373,-0.1396,-0.1436,-0.1457,-0.1484,-0.1514,-0.154,-0.1556,-0.1593,-0.1591,-0.1609,-0.1629,-0.163,-0.1635,-0.1652,-0.1632,-0.1602,-0.1601,-0.1639,-0.1639,-0.1639,0,-0.1159,-0.1209,-0.1233,-0.1251,-0.1309,-0.132,-0.1345,-0.1385,-0.1405,-0.1439,-0.1453,-0.1489,-0.151,-0.1538,-0.1577,-0.1585,-0.161,-0.1629,-0.1628,-0.1627,-0.1632,-0.1631,-0.1605,-0.1642,-0.1643,-0.1643,-0.1643,0,-0.1143,-0.1159,-0.1217,-0.1231,-0.1251,-0.1294,-0.1312,-0.1341,-0.1376,-0.1398,-0.1435,-0.1455,-0.1506,-0.1532,-0.1564,-0.1589,-0.1598,-0.1616,-0.1624,-0.1613,-0.161,-0.1625,-0.1627,-0.1642,-0.1642,-0.1642,-0.1642,0,-0.1104,-0.1143,-0.1172,-0.1224,-0.1238,-0.125,-0.1295,-0.1311,-0.1342,-0.1369,-0.1378,-0.1427,-0.146,-0.1502,-0.1548,-0.157,-0.1591,-0.1604,-0.1577,-0.1582,-0.1579,-0.1579,-0.1562,-0.1562,-0.1599,-0.1598,-0.1598,0,-0.1091,-0.1104,-0.1158,-0.1174,-0.1198,-0.1224,-0.1245,-0.1288,-0.1308,-0.1355,-0.1365,-0.1401,-0.1431,-0.1481,-0.1522,-0.1557,-0.1572,-0.1563,-0.1577,-0.1565,-0.1572,-0.1571,-0.1572,-0.1559,-0.1559,-0.1558,-0.1558,0,-0.1064,-0.1083,-0.1111,-0.1146,-0.1169,-0.1199,-0.1231,-0.1243,-0.1293,-0.1314,-0.1347,-0.137,-0.1417,-0.1452,-0.1493,-0.152,-0.1547,-0.1553,-0.1555,-0.1543,-0.1527,-0.1536,-0.1568,-0.1553,-0.1554,-0.1554,-0.1554,-0.1555,-0.1038,-0.1052,-0.1091,-0.1122,-0.115,-0.1178,-0.1196,-0.1229,-0.1257,-0.1297,-0.1321,-0.1354,-0.1394,-0.1451,-0.1477,-0.1504,-0.1514,-0.1517,-0.1517,-0.1517,-0.1514,-0.1523,-0.1511,-0.1512,-0.1512,-0.1512,-0.1512,0,-0.1013,-0.1041,-0.1068,-0.111,-0.1134,-0.1157,-0.1193,-0.1212,-0.124,-0.1274,-0.1303,-0.1341,-0.1375,-0.1418,-0.1455,-0.1468,-0.1482,-0.1476,-0.1476,-0.1482,-0.1502,-0.1497,-0.1465,-0.1465,-0.1465,-0.1465,-0.1465,-0.1465,-0.1003,-0.1027,-0.105,-0.1089,-0.1117,-0.1148,-0.1167,-0.1194,-0.1221,-0.1262,-0.129,-0.1317,-0.1355,-0.1395,-0.1428,-0.144,-0.1452,-0.1442,-0.1458,-0.1476,-0.148,-0.1484,-0.148,-0.1445,-0.1445,-0.1436,-0.1436,-0.1436]}]]